Weather History for KLNK - September, 2013

Change the Weather History Date:

Monday, September 16, 2013

  Actual Average Record
Temperature  
Mean Temperature 59 °F 66 °F  
Max Temperature 65 °F 79 °F 100 °F (1931)
Min Temperature 53 °F 53 °F 34 °F (1903)
Degree Days  
Heating Degree Days 6 3  
Month to date heating degree days 8 25  
Since 1 July heating degree days 11 31  
Cooling Degree Days 0 4  
Month to date cooling degree days 151 89  
Year to date cooling degree days 1166 1124  
Growing Degree Days 8 (Base 50)    
Moisture  
Dew Point 53 °F    
Average Humidity 80    
Maximum Humidity 93    
Minimum Humidity 67    
Precipitation  
Precipitation 0.04 in 0.10 in 2.53 in (1968)
Month to date precipitation 1.39 1.73  
Year to date precipitation 21.84 23.31  
Snow  
Snow 0.00 in 0.00 in - ()
Month to date snowfall 0.0 0.0  
Since 1 July snowfall 0.0 0.0  
Snow Depth 0.00 in    
Sea Level Pressure  
Sea Level Pressure 30.25 in    
Wind  
Wind Speed 9 mph (ESE)    
Max Wind Speed 17 mph    
Max Gust Speed 23 mph    
Visibility 10 miles    
Events Rain    
T = Trace of Precipitation, MM = Missing Value Source: NWS Daily Summary

Daily Weather History Graph

Daily Weather History Graph

Search for Another Location

Airport or City:

Trip Planner

Search our weather history database for the weather conditions in past years. The results will help you decide how hot, cold, wet, or windy it might be!

Date:

Astronomy

Sep. 16, 2013 Rise Set
Actual Time 7:08 AM CDT 7:33 PM CDT
Civil Twilight 6:41 AM CDT 8:01 PM CDT
Nautical Twilight 6:09 AM CDT 8:33 PM CDT
Astronomical Twilight 5:35 AM CDT 9:06 PM CDT
Moon 5:44 PM CDT (9/16) 3:55 AM CDT (9/16)
Length of Visible Light 13h 19m
Length of Day
12h 25m
Waxing Gibbous, 90% of the Moon is Illuminated
Sep 16
Waxing Gibbous
Sep 19
Full
Sep 26
Last Quarter
Oct 4
New
Oct 11
First Quarter

Hourly Weather History & Observations

Time (CDT) Temp. Dew Point Humidity Pressure Visibility Wind Dir Wind Speed Gust Speed Precip Events Conditions
12:54 AM 62.1 °F 51.1 °F 67% 30.25 in 10.0 mi NE 11.5 mph - N/A   Overcast
1:54 AM 61.0 °F 51.1 °F 70% 30.25 in 10.0 mi NE 8.1 mph - N/A   Overcast
2:09 AM 60.8 °F 51.8 °F 72% 30.26 in 10.0 mi ENE 8.1 mph - N/A   Overcast
2:54 AM 61.0 °F 52.0 °F 72% 30.25 in 10.0 mi ENE 6.9 mph - N/A   Overcast
3:54 AM 61.0 °F 51.1 °F 70% 30.25 in 10.0 mi East 8.1 mph - N/A   Overcast
4:54 AM 61.0 °F 51.1 °F 70% 30.26 in 10.0 mi East 9.2 mph - N/A   Overcast
5:19 AM 57.2 °F 50.0 °F 77% 30.27 in 10.0 mi ENE 8.1 mph - N/A   Scattered Clouds
5:54 AM 54.0 °F 50.0 °F 86% 30.27 in 10.0 mi NNE 6.9 mph - N/A   Partly Cloudy
6:54 AM 54.0 °F 50.0 °F 86% 30.28 in 10.0 mi NE 8.1 mph - N/A   Partly Cloudy
7:54 AM 55.9 °F 52.0 °F 87% 30.30 in 10.0 mi NE 5.8 mph - N/A   Mostly Cloudy
8:54 AM 59.0 °F 53.1 °F 81% 30.30 in 10.0 mi ENE 9.2 mph - N/A   Partly Cloudy
9:43 AM 60.8 °F 53.6 °F 77% 30.32 in 10.0 mi ENE 9.2 mph - N/A   Mostly Cloudy
9:54 AM 61.0 °F 53.1 °F 75% 30.32 in 10.0 mi ESE 8.1 mph - N/A   Mostly Cloudy
10:12 AM 60.8 °F 53.6 °F 77% 30.33 in 10.0 mi East 9.2 mph - N/A   Overcast
10:54 AM 61.0 °F 51.1 °F 70% 30.32 in 10.0 mi ESE 13.8 mph - N/A   Overcast
11:54 AM 63.0 °F 51.1 °F 65% 30.31 in 10.0 mi ESE 13.8 mph 18.4 mph N/A   Overcast
12:54 PM 63.0 °F 52.0 °F 67% 30.30 in 10.0 mi ESE 12.7 mph - N/A   Overcast
1:54 PM 63.0 °F 52.0 °F 67% 30.28 in 10.0 mi ESE 12.7 mph - N/A   Overcast
2:30 PM 64.4 °F 53.6 °F 68% 30.26 in 10.0 mi ESE 12.7 mph - N/A   Overcast
2:54 PM 63.0 °F 53.1 °F 70% 30.25 in 10.0 mi ESE 8.1 mph - N/A   Overcast
3:54 PM 63.0 °F 53.1 °F 70% 30.23 in 10.0 mi SE 8.1 mph - N/A   Overcast
4:54 PM 63.0 °F 53.1 °F 70% 30.21 in 10.0 mi SE 10.4 mph - N/A   Overcast
5:54 PM 62.1 °F 54.0 °F 75% 30.21 in 10.0 mi ESE 8.1 mph - N/A   Overcast
6:01 PM 62.6 °F 53.6 °F 72% 30.22 in 10.0 mi SE 10.4 mph - 0.00 in Rain Light Rain
6:54 PM 60.1 °F 54.0 °F 80% 30.21 in 10.0 mi SE 9.2 mph - 0.00 in   Overcast
7:29 PM 60.8 °F 55.4 °F 82% 30.21 in 10.0 mi SSE 10.4 mph - 0.00 in   Overcast
7:54 PM 60.1 °F 54.0 °F 80% 30.20 in 10.0 mi SE 13.8 mph - 0.00 in   Overcast
8:03 PM 59.0 °F 53.6 °F 82% 30.21 in 10.0 mi SE 12.7 mph - N/A   Overcast
8:54 PM 59.0 °F 54.0 °F 83% 30.21 in 10.0 mi ESE 9.2 mph - 0.00 in   Overcast
9:17 PM 59.0 °F 53.6 °F 82% 30.22 in 10.0 mi SE 11.5 mph - 0.00 in Rain Light Rain
9:29 PM 57.2 °F 55.4 °F 94% 30.22 in 9.0 mi ESE 8.1 mph - 0.00 in Rain Light Rain
9:54 PM 57.9 °F 55.0 °F 90% 30.21 in 10.0 mi ESE 6.9 mph - 0.02 in Rain Light Rain
10:33 PM 59.0 °F 55.4 °F 88% 30.22 in 10.0 mi SE 6.9 mph - 0.00 in Rain Light Rain
10:54 PM 57.9 °F 55.9 °F 93% 30.21 in 10.0 mi SE 8.1 mph - 0.00 in Rain Light Rain
11:28 PM 57.2 °F 55.4 °F 94% 30.21 in 9.0 mi SE 10.4 mph - 0.01 in Rain Light Rain
11:54 PM 57.9 °F 55.9 °F 93% 30.19 in 8.0 mi ESE 8.1 mph - 0.01 in Rain Light Rain